Volver al catálogo

ONEWEB-0667

ActivoComunicacionesPO
NORAD 55827·PAYLOAD·🇬🇧 United Kingdom

Lanzado Mar 9, 2023 desde Cape Canaveral Space Force Station

Loading…

Próximos Pases (próximas 24 horas)

TLE

ActualizadoSource: CelesTrak SupGP

Época: Sep 14, 2026, 16:06 UTC

1 55827C 23029AH  26257.67102269 -.00002929  00000+0 -72112-2 0  2573
2 55827  87.9142 256.5840 0002159  87.0505  22.7333 13.20779834    17

Sigue ONEWEB-0667 en tiempo real con AllMySat

Download on the App Store